| time (UTC) | temp F | wind direction | speed MPH | gust MPH | rain 1hr in | rain 24hr in | rain mn in | humidity % | barometer mb |
| 20260905062034 | 65 | 337 | 0.0 | 0.0 | 0.00 | 0.00 | 0.00 | 89 | 1032.5 |
| 20260905060037 | 65 | 337 | 0.0 | 0.0 | 0.00 | 0.00 | 0.00 | 90 | 1032.4 |
| 20260905055034 | 65 | 337 | 0.0 | 0.0 | 0.00 | 0.00 | 0.00 | 89 | 1032.3 |
| 20260905054034 | 65 | 337 | 0.0 | 0.0 | 0.00 | 0.00 | 0.00 | 89 | 1032.3 |
| 20260905051135 | 65 | 337 | 0.0 | 0.0 | 0.00 | 0.00 | 0.00 | 88 | 1032.4 |
| 20260905050135 | 65 | 337 | 0.0 | 0.0 | 0.00 | 0.00 | 0.00 | 87 | 1032.4 |
| 20260905045135 | 65 | 337 | 0.0 | 0.0 | 0.00 | 0.00 | 0.00 | 87 | 1032.4 |
| 20260905043234 | 65 | 337 | 0.0 | 0.0 | 0.00 | 0.00 | 0.00 | 86 | 1032.0 |
| 20260905042235 | 66 | 337 | 0.0 | 0.0 | 0.00 | 0.00 | 0.00 | 86 | 1031.9 |
| 20260905041234 | 66 | 337 | 0.0 | 0.0 | 0.00 | 0.00 | 0.00 | 86 | 1031.9 |
| 20260905040250 | 66 | 337 | 0.0 | 0.0 | 0.00 | 0.00 | 0.00 | 86 | 1031.8 |
| 20260905035236 | 66 | 337 | 0.0 | 0.0 | 0.00 | 0.00 | 0.00 | 85 | 1031.7 |
| 20260905033233 | 67 | 337 | 0.0 | 0.0 | 0.00 | 0.00 | 0.00 | 85 | 1031.7 |
| 20260905031235 | 67 | 337 | 0.0 | 0.0 | 0.00 | 0.00 | 0.00 | 84 | 1031.3 |
| 20260905030235 | 67 | 337 | 0.0 | 0.0 | 0.00 | 0.00 | 0.00 | 83 | 1031.2 |
| 20260905025334 | 67 | 337 | 0.0 | 0.0 | 0.00 | 0.00 | 0.00 | 83 | 1031.0 |
| 20260905024333 | 68 | 315 | 0.0 | 0.0 | 0.00 | 0.00 | 0.00 | 82 | 1030.9 |
| 20260905023433 | 68 | 315 | 0.0 | 0.0 | 0.00 | 0.00 | 0.00 | 81 | 1031.1 |
| 20260905022435 | 68 | 315 | 0.0 | 0.0 | 0.00 | 0.00 | 0.00 | 80 | 1031.0 |
| 20260905020435 | 69 | 278 | 0.0 | 0.0 | 0.00 | 0.00 | 0.00 | 77 | 1031.0 |
| 20260905015534 | 70 | 180 | 0.0 | 0.0 | 0.00 | 0.00 | 0.00 | 75 | 1031.0 |
| 20260905014537 | 71 | 337 | 0.0 | 0.0 | 0.00 | 0.00 | 0.00 | 75 | 1030.9 |
| 20260905013633 | 72 | 326 | 0.0 | 0.0 | 0.00 | 0.00 | 0.00 | 73 | 1030.9 |
| 20260905012634 | 73 | 337 | 0.0 | 0.0 | 0.00 | 0.00 | 0.00 | 72 | 1030.7 |
| 20260905011635 | 73 | 324 | 0.0 | 0.0 | 0.00 | 0.00 | 0.00 | 71 | 1030.8 |
| 20260905010733 | 74 | 333 | 0.0 | 0.0 | 0.00 | 0.00 | 0.00 | 70 | 1030.9 |
| 20260905005735 | 74 | 317 | 0.0 | 0.0 | 0.00 | 0.00 | 0.00 | 69 | 1030.8 |
| 20260905004833 | 74 | 333 | 0.0 | 0.0 | 0.00 | 0.00 | 0.00 | 69 | 1030.8 |
| 20260905004733 | 74 | 335 | 0.0 | 0.0 | 0.00 | 0.00 | 0.00 | 69 | 1030.9 |
| 20260905003833 | 75 | 335 | 0.0 | 0.0 | 0.00 | 0.00 | 0.00 | 68 | 1030.8 |
| 20260905002835 | 75 | 324 | 0.0 | 0.0 | 0.00 | 0.00 | 0.00 | 68 | 1030.8 |
| 20260905001835 | 75 | 330 | 0.0 | 0.0 | 0.00 | 0.00 | 0.00 | 67 | 1030.9 |
| 20260905000833 | 76 | 336 | 0.0 | 0.0 | 0.00 | 0.00 | 0.00 | 66 | 1030.8 |
| 20260904235833 | 76 | 337 | 0.0 | 0.0 | 0.00 | 0.00 | 0.00 | 66 | 1030.9 |
| 20260904234835 | 76 | 337 | 0.0 | 0.0 | 0.00 | 0.00 | 0.00 | 66 | 1030.8 |
| 20260904232934 | 76 | 333 | 0.0 | 0.0 | 0.00 | 0.00 | 0.00 | 66 | 1030.9 |
| 20260904232032 | 76 | 326 | 0.0 | 0.0 | 0.00 | 0.00 | 0.00 | 67 | 1031.0 |
| 20260904231034 | 76 | 335 | 0.0 | 0.0 | 0.00 | 0.00 | 0.00 | 66 | 1031.0 |
| 20260904230035 | 77 | 323 | 0.0 | 0.0 | 0.00 | 0.00 | 0.00 | 66 | 1031.0 |
| 20260904225133 | 76 | 332 | 0.0 | 0.0 | 0.00 | 0.00 | 0.00 | 67 | 1031.2 |
| 20260904224135 | 76 | 336 | 0.0 | 0.0 | 0.00 | 0.00 | 0.00 | 68 | 1031.3 |
| 20260904223233 | 76 | 337 | 0.0 | 0.0 | 0.00 | 0.00 | 0.00 | 68 | 1031.2 |
| 20260904222234 | 76 | 336 | 0.0 | 0.0 | 0.00 | 0.00 | 0.00 | 68 | 1031.3 |
| 20260904220234 | 76 | 330 | 0.0 | 0.0 | 0.00 | 0.00 | 0.00 | 68 | 1031.6 |
| 20260904215234 | 76 | 332 | 0.0 | 0.0 | 0.00 | 0.00 | 0.00 | 68 | 1031.5 |
| 20260904213235 | 76 | 337 | 0.0 | 0.0 | 0.00 | 0.00 | 0.00 | 68 | 1031.6 |
| 20260904211235 | 76 | 330 | 0.0 | 0.0 | 0.00 | 0.00 | 0.00 | 70 | 1031.5 |
| 20260904210335 | 76 | 332 | 0.0 | 0.0 | 0.00 | 0.00 | 0.00 | 70 | 1031.7 |
| 20260904205336 | 76 | 329 | 0.0 | 0.0 | 0.00 | 0.00 | 0.00 | 71 | 1031.8 |
| 20260904204333 | 75 | 337 | 0.0 | 0.0 | 0.00 | 0.00 | 0.00 | 71 | 1031.8 |
| 20260904203334 | 75 | 297 | 0.0 | 0.0 | 0.00 | 0.00 | 0.00 | 69 | 1031.7 |
| 20260904202335 | 76 | 326 | 0.0 | 0.0 | 0.00 | 0.00 | 0.00 | 70 | 1031.8 |
| 20260904200334 | 75 | 326 | 0.0 | 0.0 | 0.00 | 0.00 | 0.00 | 71 | 1032.0 |
| 20260904195334 | 75 | 307 | 0.0 | 0.0 | 0.00 | 0.00 | 0.00 | 72 | 1032.0 |
| 20260904194335 | 75 | 328 | 0.0 | 0.0 | 0.00 | 0.00 | 0.00 | 71 | 1032.1 |
| 20260904193433 | 75 | 333 | 0.0 | 0.0 | 0.00 | 0.00 | 0.00 | 70 | 1032.0 |
| 20260904192434 | 75 | 335 | 0.0 | 0.0 | 0.00 | 0.00 | 0.00 | 72 | 1032.3 |
| 20260904190532 | 75 | 330 | 0.0 | 0.0 | 0.00 | 0.00 | 0.00 | 70 | 1032.4 |
| 20260904184535 | 74 | 337 | 0.0 | 0.0 | 0.00 | 0.00 | 0.00 | 72 | 1032.6 |
| 20260904183535 | 73 | 336 | 0.0 | 0.0 | 0.00 | 0.00 | 0.00 | 72 | 1032.6 |
| 20260904182633 | 73 | 317 | 0.0 | 0.0 | 0.00 | 0.00 | 0.00 | 73 | 1032.7 |
| 20260904181635 | 73 | 331 | 0.0 | 0.0 | 0.00 | 0.00 | 0.00 | 70 | 1032.8 |
| 20260904180635 | 72 | 337 | 0.0 | 0.0 | 0.00 | 0.00 | 0.00 | 72 | 1032.7 |
| 20260904175633 | 72 | 337 | 0.0 | 0.0 | 0.00 | 0.00 | 0.00 | 72 | 1032.9 |
| 20260904174733 | 71 | 334 | 0.0 | 0.0 | 0.00 | 0.00 | 0.00 | 72 | 1032.8 |
| 20260904173733 | 71 | 331 | 0.0 | 0.0 | 0.00 | 0.00 | 0.00 | 73 | 1032.9 |
| 20260904172734 | 70 | 334 | 0.0 | 0.0 | 0.00 | 0.00 | 0.00 | 74 | 1032.8 |
| 20260904165834 | 69 | 334 | 0.0 | 0.0 | 0.00 | 0.00 | 0.00 | 75 | 1033.0 |
| 20260904164933 | 69 | 233 | 0.0 | 0.0 | 0.00 | 0.00 | 0.00 | 75 | 1032.8 |
| 20260904163934 | 69 | 284 | 0.0 | 0.0 | 0.00 | 0.00 | 0.00 | 75 | 1032.8 |
| 20260904162934 | 68 | 337 | 0.0 | 0.0 | 0.00 | 0.00 | 0.00 | 76 | 1032.6 |
| 20260904162033 | 68 | 336 | 0.0 | 0.0 | 0.00 | 0.00 | 0.00 | 76 | 1032.5 |
| 20260904161035 | 68 | 181 | 0.0 | 0.0 | 0.00 | 0.00 | 0.00 | 77 | 1032.6 |
| 20260904160133 | 68 | 277 | 0.0 | 0.0 | 0.00 | 0.00 | 0.00 | 76 | 1032.4 |
| 20260904155232 | 68 | 297 | 0.0 | 0.0 | 0.00 | 0.00 | 0.00 | 77 | 1032.3 |
| 20260904154233 | 68 | 330 | 0.0 | 0.0 | 0.00 | 0.00 | 0.00 | 76 | 1032.3 |
| 20260904152235 | 67 | 180 | 0.0 | 0.0 | 0.00 | 0.00 | 0.00 | 78 | 1032.2 |
| 20260904151234 | 67 | 180 | 0.0 | 0.0 | 0.00 | 0.00 | 0.00 | 79 | 1032.1 |
| 20260904150235 | 67 | 180 | 0.0 | 0.0 | 0.00 | 0.00 | 0.00 | 79 | 1032.1 |
| 20260904144238 | 66 | 180 | 0.0 | 0.0 | 0.00 | 0.00 | 0.00 | 80 | 1032.0 |
| 20260904143334 | 66 | 180 | 0.0 | 0.0 | 0.00 | 0.00 | 0.00 | 81 | 1032.0 |
| 20260904142335 | 65 | 180 | 0.0 | 0.0 | 0.00 | 0.00 | 0.00 | 82 | 1031.9 |
| 20260904141432 | 65 | 180 | 0.0 | 0.0 | 0.00 | 0.00 | 0.00 | 83 | 1031.8 |
| 20260904140435 | 64 | 180 | 0.0 | 0.0 | 0.00 | 0.00 | 0.00 | 84 | 1031.7 |
| 20260904135434 | 64 | 180 | 0.0 | 0.0 | 0.00 | 0.00 | 0.00 | 85 | 1031.7 |
| 20260904134433 | 63 | 180 | 0.0 | 0.0 | 0.00 | 0.00 | 0.00 | 85 | 1031.7 |
| 20260904133436 | 63 | 180 | 0.0 | 0.0 | 0.00 | 0.00 | 0.00 | 85 | 1031.5 |
| 20260904132436 | 63 | 180 | 0.0 | 0.0 | 0.00 | 0.00 | 0.00 | 85 | 1031.5 |
| 20260904130432 | 63 | 180 | 0.0 | 0.0 | 0.00 | 0.00 | 0.00 | 86 | 1031.4 |
| 20260904125435 | 63 | 180 | 0.0 | 0.0 | 0.00 | 0.00 | 0.00 | 86 | 1031.3 |
| 20260904122434 | 63 | 72 | 0.0 | 0.0 | 0.00 | 0.00 | 0.00 | 87 | 1031.2 |
| 20260904121434 | 63 | 67 | 0.0 | 0.0 | 0.00 | 0.00 | 0.00 | 88 | 1031.2 |
| 20260904120434 | 63 | 69 | 0.0 | 0.0 | 0.00 | 0.00 | 0.00 | 88 | 1031.2 |
| 20260904115533 | 63 | 67 | 0.0 | 0.0 | 0.00 | 0.00 | 0.00 | 89 | 1031.2 |
| 20260904113633 | 63 | 67 | 0.0 | 0.0 | 0.00 | 0.00 | 0.00 | 88 | 1031.4 |
| 20260904112633 | 64 | 67 | 0.0 | 0.0 | 0.00 | 0.00 | 0.00 | 88 | 1031.4 |
| 20260904111635 | 64 | 67 | 0.0 | 0.0 | 0.00 | 0.00 | 0.00 | 88 | 1031.3 |
| 20260904110634 | 64 | 73 | 0.0 | 0.0 | 0.00 | 0.00 | 0.00 | 88 | 1031.3 |
| 20260904105635 | 64 | 67 | 0.0 | 0.0 | 0.00 | 0.00 | 0.00 | 88 | 1031.6 |
| 20260904104633 | 64 | 67 | 0.0 | 0.0 | 0.00 | 0.00 | 0.00 | 88 | 1031.4 |
| 20260904102733 | 64 | 67 | 0.0 | 0.0 | 0.00 | 0.00 | 0.00 | 89 | 1031.2 |
| 20260904101734 | 64 | 67 | 0.0 | 0.0 | 0.00 | 0.00 | 0.00 | 89 | 1031.1 |
| 20260904100733 | 63 | 67 | 0.0 | 0.0 | 0.00 | 0.00 | 0.00 | 90 | 1031.1 |
| 20260904095736 | 63 | 67 | 0.0 | 0.0 | 0.00 | 0.00 | 0.00 | 91 | 1031.2 |
| 20260904094833 | 62 | 67 | 0.0 | 0.0 | 0.00 | 0.00 | 0.00 | 91 | 1031.3 |
| 20260904093933 | 62 | 67 | 0.0 | 0.0 | 0.00 | 0.00 | 0.00 | 91 | 1031.3 |
| 20260904092935 | 62 | 67 | 0.0 | 0.0 | 0.00 | 0.00 | 0.00 | 91 | 1031.2 |
| 20260904091933 | 62 | 67 | 0.0 | 0.0 | 0.00 | 0.00 | 0.00 | 91 | 1031.2 |
| 20260904091032 | 62 | 67 | 0.0 | 0.0 | 0.00 | 0.00 | 0.00 | 91 | 1031.2 |
| 20260904085034 | 63 | 67 | 0.0 | 0.0 | 0.00 | 0.00 | 0.00 | 91 | 1031.3 |
| 20260904083036 | 63 | 67 | 0.0 | 0.0 | 0.00 | 0.00 | 0.00 | 90 | 1031.4 |
| 20260904082034 | 63 | 67 | 0.0 | 0.0 | 0.00 | 0.00 | 0.00 | 90 | 1031.5 |
| 20260904081032 | 63 | 67 | 0.0 | 0.0 | 0.00 | 0.00 | 0.00 | 90 | 1031.5 |
| 20260904080039 | 63 | 67 | 0.0 | 0.0 | 0.00 | 0.00 | 0.00 | 89 | 1031.7 |
| 20260904075133 | 63 | 180 | 0.0 | 0.0 | 0.00 | 0.00 | 0.00 | 89 | 1031.7 |
| 20260904074135 | 64 | 180 | 0.0 | 0.0 | 0.00 | 0.00 | 0.00 | 88 | 1031.6 |
| 20260904073133 | 64 | 180 | 0.0 | 0.0 | 0.00 | 0.00 | 0.00 | 88 | 1031.5 |
| 20260904072136 | 64 | 180 | 0.0 | 0.0 | 0.00 | 0.00 | 0.00 | 88 | 1031.4 |
| 20260904071135 | 64 | 180 | 0.0 | 0.0 | 0.00 | 0.00 | 0.00 | 87 | 1031.6 |
| 20260904065230 | 65 | 157 | 0.0 | 0.0 | 0.00 | 0.00 | 0.00 | 86 | 1031.7 |
| 20260904064328 | 65 | 157 | 0.0 | 0.0 | 0.00 | 0.00 | 0.00 | 86 | 1031.6 |
| 20260904063330 | 65 | 157 | 0.0 | 0.0 | 0.00 | 0.00 | 0.00 | 86 | 1031.5 |